Home > Weather > Brantford > Past weeks

Flag for Canada Past Weather in Brantford, Ontario, Canada — Yesterday and Last 2 Weeks

Now
77 °F

Passing clouds.


Feels Like: 79 °F
Forecast: 61 / 86 °F
Wind: 7 mph from Northwest

Location: Hamilton Airport

Current Time: Jul 26, 2016 at 12:05:37 PM

Latest Report: Jul 26, 2016 at 11:00 AM


Visibility: 15 mi

Pressure: 30.03 "Hg

Humidity: 57%

Dew Point: 61 °F

Location of BrantfordLocation

Past Weather in Brantford — Graph

°F

Brantford Temperature Yesterday

Maximum temperature yesterday: 86 °F (at 3:00 PM)
Minimum temperature yesterday: 70 °F (at 7:00 AM)
Average temperature yesterday: 76 °F

High & Low Weather Summary for the Past Weeks

 TemperatureHumidityPressure
High91 °F (Jul 13, 4:00 PM)100% (Jul 14, 12:51 AM)30.29 "Hg (Jul 14, 12:51 AM)
Low50 °F (Jul 17, 6:00 AM)30% (Jul 20, 4:00 PM)29.75 "Hg (Jul 14, 6:00 AM)
Average74 °F67%29.99 "Hg
* Reported Jul 11 11:00 AM — Jul 26 11:00 AM, Brantford, Weather by CustomWeather, © 2016

Note: Actual official high and low records may vary slightly from our data, if they occured in-between our weather recording intervals... More about our weather records

Advertising

Brantford Weather History for the Previous 24 Hours

Scroll right to see more
 ConditionsComfort  
Time TempWeatherWind HumidityBarometerVisibility
11:00 AM
Tue, Jul 26
77 °FPassing clouds.7 mph57%30.03 "Hg15 mi
10:00 AM73 °FPassing clouds.5 mph65%30.02 "Hg15 mi
9:00 AM70 °FPassing clouds.7 mph73%30.03 "Hg15 mi
8:00 AM66 °FPassing clouds.8 mph78%30.02 "Hg15 mi
7:00 AM64 °FPassing clouds.7 mph83%30.00 "Hg15 mi
6:00 AM63 °FPassing clouds.8 mph83%29.98 "Hg15 mi
5:00 AM63 °FPassing clouds.5 mph88%29.98 "Hg15 mi
4:00 AM64 °FPassing clouds.6 mph83%29.97 "Hg15 mi
3:00 AM66 °FPassing clouds.8 mph78%29.96 "Hg15 mi
2:00 AM68 °FPassing clouds.6 mph78%29.94 "Hg15 mi
1:00 AM70 °FPassing clouds.8 mph73%29.93 "Hg15 mi
12:00 AM72 °FPassing clouds.9 mph73%29.93 "Hg15 mi
11:00 PM
Mon, Jul 25
72 °FPassing clouds.5 mph73%29.91 "Hg15 mi
10:00 PM72 °FPassing clouds.6 mph73%29.91 "Hg15 mi
9:00 PM75 °FPassing clouds.5 mph65%29.90 "Hg15 mi
8:00 PM81 °FPassing clouds.8 mph54%29.88 "Hg15 mi
7:00 PM82 °FPassing clouds.12 mph48%29.86 "Hg15 mi
6:00 PM84 °FScattered clouds.13 mph51%29.85 "Hg15 mi
5:00 PM86 °FScattered clouds.20 mph49%29.85 "Hg15 mi
4:00 PM86 °FScattered clouds.16 mph55%29.84 "Hg15 mi
3:00 PM86 °FPartly sunny.15 mph55%29.85 "Hg15 mi
2:00 PM82 °FBroken clouds.9 mph79%29.85 "Hg15 mi
1:00 PM79 °FMostly cloudy.12 mph89%29.87 "Hg8 mi
12:00 PM77 °FMore clouds than sun.9 mph94%29.88 "Hg8 mi
Weather by CustomWeather, © 2016

See weather overviewHow to use our weather pages